Home > Time Zones > World Clock > Weather > Peru > Lima > Past weeks

Flag for Peru Weather past 2 weeks in Lima, Lima, Peru

Now
70 °F

Overcast.


Feels Like: 70 °F
Forecast: 63 / 75 °F
Wind: 3 mph from East

Location: Lima-Callao / Aerop. Internacional Jorgechavez

Current Time: May 25, 2015 at 9:10:22 AM

Latest Report: May 25, 2015 at 8:00 AM


Visibility: N/A

Pressure: 29.98 "Hg

Humidity: 78%

Dew point: 63 °F

Location of LimaLocation

Historic Weather in Lima — Graph

°F

Lima temperature yesterday

Maximum temperature yesterday: 73 °F (at 10:00 AM)
Minimum temperature yesterday: 64 °F (at 7:00 AM)
Average temperature yesterday: 70 °F

Past Weeks' High & Low Weather Summary

 TemperatureHumidityPressure
High79 °F (May 11, 12:00 PM)94% (May 10, 10:00 PM)30.04 "Hg (May 10, 10:00 PM)
Low64 °F (May 24, 7:00 AM)54% (May 11, 1:00 PM)29.77 "Hg (May 11, 4:00 PM)
Average70 °F79%29.92 "Hg
* Reported May 10 7:00 AM — May 25 7:00 AM, Lima, Weather by CustomWeather, © 2015

Note: Actual official high and low records may vary slightly from our data, if they occured in-between our weather recording intervals... More about our weather records

Advertising

Lima weather history for previous 24 hours

 ConditionsComfort  
Time TempWeatherWind HumidityBarometerVisibility
7:00 AM
Mon, May 25
70 °FMore clouds than sun.3 mph78%29.98 "HgN/A
6:00 AM70 °FOvercast.2 mph78%29.98 "HgN/A
5:00 AM68 °FOvercast.2 mph78%29.95 "HgN/A
4:00 AM68 °FOvercast.5 mph83%29.92 "HgN/A
3:00 AM68 °FOvercast.3 mph78%29.92 "HgN/A
2:00 AM68 °FOvercast.3 mph83%29.95 "HgN/A
1:00 AM68 °FOvercast.6 mph83%29.95 "HgN/A
12:00 AM68 °FOvercast.7 mph83%29.95 "HgN/A
11:00 PM
Sun, May 24
68 °FOvercast.10 mph83%29.95 "HgN/A
10:00 PM70 °FOvercast.10 mph78%29.95 "HgN/A
9:00 PM70 °FOvercast.12 mph78%29.95 "HgN/A
8:00 PM70 °FOvercast.13 mph78%29.95 "HgN/A
7:00 PM70 °FOvercast.12 mph73%29.92 "HgN/A
6:00 PM70 °FOvercast.12 mph78%29.89 "HgN/A
5:00 PM70 °FOvercast.17 mph78%29.89 "HgN/A
4:00 PM70 °FMostly cloudy.15 mph78%29.89 "HgN/A
3:00 PM72 °FOvercast.14 mph69%29.89 "HgN/A
2:00 PM72 °FMore clouds than sun.13 mph69%29.92 "HgN/A
1:00 PM73 °FPartly sunny.14 mph69%29.92 "HgN/A
12:00 PM73 °FScattered clouds.14 mph74%29.92 "HgN/A
11:00 AM73 °FScattered clouds.13 mph69%29.95 "HgN/A
10:00 AM73 °FScattered clouds.9 mph74%29.95 "HgN/A
9:00 AM70 °FBroken clouds.7 mph78%29.98 "HgN/A
Weather by CustomWeather, © 2015

See weather overviewHow to use our weather pages